TimeEAT,TemperatureF,Dew PointF,Humidity,Sea Level PressureIn,VisibilityMPH,Wind Direction,Wind SpeedMPH,Gust SpeedMPH,PrecipitationIn,Events,Conditions,WindDirDegrees,DateUTC
12:30 AM,78.8,71.6,78,29.86,6.2,Calm,Calm,-,N/A,,Scattered Clouds,0,2012-10-31 21:30:00
1:30 AM,78.8,71.6,78,29.83,6.2,Calm,Calm,-,N/A,,Partly Cloudy,0,2012-10-31 22:30:00
3:00 AM,77,72,81,29.84,19,Calm,Calm,,,,Scattered Clouds,,2012-11-01 00:00:00
3:00 AM,77.0,71.6,83,29.83,6.2,Calm,Calm,-,N/A,,Partly Cloudy,0,2012-11-01 00:00:00
5:00 AM,75.2,71.6,89,29.86,6.2,Calm,Calm,-,N/A,,Partly Cloudy,0,2012-11-01 02:00:00
6:00 AM,73.4,71.6,94,29.86,6.2,Calm,Calm,-,N/A,,Partly Cloudy,0,2012-11-01 03:00:00
6:30 AM,73.4,71.6,94,29.86,6.2,Calm,Calm,-,N/A,,Partly Cloudy,0,2012-11-01 03:30:00
8:00 AM,78.8,71.6,78,29.92,6.2,NW,5.8,-,N/A,,Scattered Clouds,310,2012-11-01 05:00:00
9:00 AM,81,72,69,29.93,19,North,4.6,,,,Mostly Cloudy,0,2012-11-01 06:00:00
10:00 AM,82.4,71.6,70,29.92,6.2,Calm,Calm,-,N/A,,Mostly Cloudy,0,2012-11-01 07:00:00
11:00 AM,86.0,71.6,62,29.92,6.2,East,3.5,-,N/A,,Mostly Cloudy,100,2012-11-01 08:00:00
12:00 PM,87.8,69.8,55,29.89,6.2,ESE,5.8,-,N/A,,Mostly Cloudy,120,2012-11-01 09:00:00
1:00 PM,87.8,69.8,55,29.86,6.2,East,8.1,-,N/A,,Scattered Clouds,90,2012-11-01 10:00:00
2:00 PM,87.8,69.8,55,29.80,6.2,East,13.8,-,N/A,,Partly Cloudy,90,2012-11-01 11:00:00
3:00 PM,86,71,51,29.79,19,ESE,12.7,,,,Scattered Clouds,120,2012-11-01 12:00:00
3:00 PM,86.0,69.8,58,29.80,6.2,ESE,17.3,-,N/A,,Partly Cloudy,120,2012-11-01 12:00:00
4:00 PM,86.0,71.6,62,29.77,6.2,East,11.5,-,N/A,,Partly Cloudy,90,2012-11-01 13:00:00
5:00 PM,82.4,71.6,70,29.77,6.2,ESE,13.8,-,N/A,,Partly Cloudy,110,2012-11-01 14:00:00
6:00 PM,82.4,71.6,70,29.80,6.2,ESE,11.5,-,N/A,,Partly Cloudy,120,2012-11-01 15:00:00
7:00 PM,80.6,73.4,79,29.83,6.2,ESE,6.9,-,N/A,,Partly Cloudy,120,2012-11-01 16:00:00
9:00 PM,81,74,74,29.89,19,East,8.1,,,,Partly Cloudy,100,2012-11-01 18:00:00
9:00 PM,80.6,73.4,79,29.89,6.2,East,8.1,-,N/A,,Scattered Clouds,100,2012-11-01 18:00:00
10:00 PM,80.6,73.4,79,29.92,6.2,ESE,5.8,-,N/A,,Partly Cloudy,120,2012-11-01 19:00:00
11:00 PM,80.6,73.4,79,29.92,6.2,SE,4.6,-,N/A,,Mostly Cloudy,130,2012-11-01 20:00:00